Flag for Germany Weather past 2 weeks in Riesa, Saxony, Germany

Now
45 °F

Partly sunny.


Feels Like: 45 °F
Forecast: 33 / 68 °F
Wind: 1 mph from Northwest

Location: Dresden-Klotzsche


UV Index: 3 (Moderate)

Visibility: 31 mi


Pressure: 29.90 "Hg

Humidity: 76%

Dew point: 38 °F

Location of RiesaLocation

Historic Weather in Riesa

°F

Riesa temperature yesterday

Maximum temperature yesterday: 55 °F (at 5:00 PM)
Minimum temperature yesterday: 30 °F (at 6:00 AM)
Average temperature yesterday: 43 °F

Past Weeks' High & Low Weather Summary

 TemperatureHumidityPressure
High68 °F (Apr 7, 6:00 PM)98% (Apr 16, 7:00 AM)30.45 "Hg (Apr 16, 7:00 AM)
Low30 °F (Apr 17, 6:00 AM)31% (Apr 17, 4:00 PM)29.65 "Hg (Apr 3, 7:00 PM)
Average49 °F72%30.03 "Hg
* Reported Apr 3 7:00 PM — Apr 18 7:00 PM, Riesa, Weather by CustomWeather, © 2014

Note: Actual official high and low records may vary slightly from our data, if they occured in-between our weather recording intervals... More about our weather records

Advertising

Historic Weather Conditions — Data for Previous 24 hours

 ConditionsComfort  
Time TempWeatherWind HumidityBarometerVisibility
7:00 PM
Apr 18
45 °FOvercast.2 mph78%29.88 "Hg25 mi
6:00 PM47 °FOvercast.2 mph69%29.86 "Hg25 mi
5:00 PM47 °FOvercast.1 mph69%29.85 "Hg22 mi
4:00 PM46 °FOvercast.2 mph75%29.85 "Hg25 mi
3:00 PM44 °FOvercast.2 mph81%29.85 "Hg22 mi
2:00 PM43 °FLow clouds.2 mph85%29.85 "Hg19 mi
1:00 PM42 °FLight rain. Low clouds.3 mph89%29.85 "Hg6 mi
12:00 PM41 °FLight rain. Low clouds.2 mph84%29.85 "Hg5 mi
11:00 AM41 °FLight rain. Low clouds.1 mph89%29.84 "Hg6 mi
10:00 AM39 °FLight rain. Overcast.3 mph91%29.84 "Hg4 mi
9:00 AM42 °FLight rain. Overcast.5 mph92%29.82 "Hg2 mi
8:00 AM43 °FLight rain. Overcast.1 mph84%29.81 "Hg4 mi
7:00 AM45 °FLight rain. Overcast.3 mph60%29.81 "Hg9 mi
6:00 AM46 °FOvercast.3 mph52%29.81 "Hg25 mi
5:00 AM46 °FOvercast.6 mph49%29.80 "Hg22 mi
4:00 AM46 °FOvercast.6 mph49%29.82 "Hg22 mi
3:00 AM43 °FPassing clouds.6 mph56%29.85 "Hg25 mi
2:00 AM43 °FPassing clouds.7 mph55%29.88 "Hg25 mi
Weather by CustomWeather, © 2014

See weather overview